This demonstration page uses our WeatherBlox Daily Observations layout. Learn more.

Left ArrowRight Arrow

38.89511, -77.03637

Hourly Observations for January 23, 2016

Temp ( °F °C ) Dew Point ( °F °C ) Humidity (%) Winds ( mph kmh ) Pressure ( in mb ) Visibility ( mi km ) Precip ( " mm )
12:16 am 00:16 Cloudy with Light Snow 24 -4.4 21 -6.1 88 88 undefined N/A 29.80 1009 1 2 0.02 0.51
12:19 am 00:19 Windy with Snow Likely 24 -4.4 21 -6.1 88 88 NNE 22 35 29.80 1009 1 2 0.02 0.51
12:30 am 00:30 Mostly Cloudy with Light Snow 25 -4 21 -6 86 86 NNE 20 31 29.80 1009 1 1 0.00 0.00
12:45 am 00:45 Mostly Cloudy with Snow 24 -4.4 21 -6.1 88 88 NNE 20 31 29.80 1009 1 1 0.05 1.27
12:52 am 00:52 Mostly Cloudy with Heavy Snow 24 -4.4 21 -6.1 88 88 N 18 30 29.79 1009 0 0 0.07 1.78
1:13 am 01:13 Mostly Cloudy with Snow 24 -4.4 22 -5.6 91 91 N 21 33 29.77 1008 0 0 0.05 1.27
1:23 am 01:23 Mostly Cloudy with Snow 24 -4.4 21 -6.1 88 88 NNE 21 33 29.77 1008 0 0 0.07 1.78
1:52 am 01:52 Mostly Cloudy with Snow 24 -4.4 21 -6.1 88 88 N 21 33 29.75 1007 0 0 0.13 3.30
2:08 am 02:08 Mostly Cloudy with Snow 25 -4 21 -6 86 86 N 20 31 29.74 1007 1 2 0.00 0.00
2:23 am 02:23 Mostly Cloudy with Snow 24 -4.4 21 -6.1 88 88 NNE 21 33 29.74 1007 1 1 0.09 2.29
2:52 am 02:52 Mostly Cloudy with Snow 24 -4.4 21 -6.1 88 88 N 21 33 29.70 1006 0 0 0.14 3.56
3:52 am 03:52 Mostly Cloudy with Snow 24 -4.4 21 -6.1 88 88 N 18 30 29.65 1004 0 0 0.09 2.29
4:31 am 04:31 Cloudy with Snow 25 -3.9 22 -5.6 88 88 N 23 37 29.62 1003 1 1 0.09 2.29
4:37 am 04:37 Cloudy with Snow 25 -3.9 22 -5.6 88 88 N 24 39 29.59 1002 1 2 0.09 2.29
4:52 am 04:52 Windy with Snow Likely 25 -3.9 22 -5.6 88 88 N 25 41 29.59 1002 1 2 0.11 2.79
5:45 am 05:45 Mostly Cloudy with Light Snow 26 -3.3 23 -5 88 88 N 23 37 29.62 1003 1 1 0.05 1.27
5:52 am 05:52 Windy with Snow Likely 26 -3.3 23 -5 88 88 N 21 33 29.61 1003 1 1 0.07 1.78
6:13 am 06:13 Mostly Cloudy with Light Snow 25 -3.9 23 -5 92 92 N 17 28 29.62 1003 0 0 0.03 0.76
6:44 am 06:44 Mostly Cloudy with Light Snow 25 -4 23 -5 93 93 N 20 31 29.62 1003 0 0 0.00 0.00
6:52 am 06:52 Mostly Cloudy with Snow 25 -3.9 23 -5 92 92 N 20 31 29.62 1003 0 0 0.09 2.29
7:19 am 07:19 Mostly Cloudy with Heavy Snow 25 -3.9 23 -5 92 92 N 22 35 29.62 1003 0 0 0.02 0.51
7:52 am 07:52 Mostly Cloudy with Light Snow 25 -3.9 23 -5 92 92 N 20 31 29.61 1003 1 1 0.05 1.27
7:59 am 07:59 Mostly Cloudy with Light Snow 25 -3.9 23 -5 92 92 N 20 31 29.62 1003 1 1 0.00 0.03
8:16 am 08:16 Mostly Cloudy with Snow 27 -3 23 -5 86 86 N 24 39 29.59 1002 1 1 0.00 0.00
8:52 am 08:52 Mostly Cloudy with Light Snow 26 -3.3 23 -5 88 88 N 21 33 29.59 1002 1 1 0.05 1.27
9:52 am 09:52 Mostly Cloudy with Snow 27 -2.8 24 -4.4 89 89 N 26 43 29.59 1002 1 1 0.02 0.51
10:52 am 10:52 Mostly Cloudy with Light Snow 28 -2.2 24 -4.4 85 85 N 26 43 29.58 1002 1 1 0.01 0.25
11:05 am 11:05 Windy with Snow Likely 28 -2.2 24 -4.4 85 85 N 26 43 29.59 1002 1 2 0.00 0.03
11:25 am 11:25 Windy with Snow Likely 27 -2.8 24 -4.4 89 89 N 29 46 29.59 1002 1 1 0.00 0.03
11:35 am 11:35 Windy with Snow Likely 28 -2.2 24 -4.4 85 85 N 28 44 29.59 1002 1 2 0.00 0.03
11:52 am 11:52 Windy with Snow Likely 28 -2.2 24 -4.4 85 85 N 26 43 29.57 1001 1 2 0.00 0.03
12:52 pm 12:52 Windy with Snow Likely 28 -2.2 25 -3.9 88 88 N 22 35 29.55 1001 1 2 0.00 0.03
1:00 pm 13:00 Windy with Snow Likely 27 -3 25 -4 93 93 N 25 41 29.56 1001 1 1 0.00 0.00
1:19 pm 13:19 Windy with Snow Likely 28 -2.2 24 -4.4 85 85 N 26 43 29.56 1001 1 2 0.00 0.03
1:43 pm 13:43 Mostly Cloudy with Light Snow 27 -2.8 24 -4.4 89 89 N 29 46 29.56 1001 1 1 0.00 0.03
1:52 pm 13:52 Mostly Cloudy with Light Snow 27 -2.8 24 -4.4 89 89 N 25 41 29.55 1001 1 1 0.00 0.03
2:32 pm 14:32 Mostly Cloudy with Heavy Snow 27 -3 23 -5 86 86 N 29 46 29.56 1001 0 0 0.00 0.00
2:52 pm 14:52 Mostly Cloudy with Heavy Snow 26 -3.3 24 -4.4 92 92 N 29 46 29.57 1001 1 2 0.03 0.76
3:00 pm 15:00 Mostly Cloudy with Heavy Snow 27 -3 23 -5 86 86 N 31 50 29.56 1001 1 2 0.00 0.00
3:52 pm 15:52 Mostly Cloudy with Heavy Snow 26 -3.3 23 -5 88 88 NNW 28 44 29.62 1003 0 0 0.02 0.51
4:04 pm 16:04 Mostly Cloudy with Heavy Snow 27 -3 23 -5 86 86 NNW 29 46 29.62 1003 0 0 0.00 0.00
4:26 pm 16:26 Mostly Cloudy with Heavy Snow 27 -3 23 -5 86 86 NNW 28 44 29.65 1004 0 0 0.00 0.00
4:52 pm 16:52 Mostly Cloudy with Snow 26 -3.3 23 -5 88 88 NNW 26 43 29.66 1004 1 2 0.02 0.51
5:18 pm 17:18 Mostly Cloudy with Snow 27 -3 25 -4 93 93 NNW 29 46 29.68 1005 1 2 0.00 0.00
5:39 pm 17:39 Mostly Cloudy with Snow 27 -2.8 24 -4.4 89 89 NNW 25 41 29.68 1005 1 1 0.03 0.76
5:52 pm 17:52 Mostly Cloudy with Snow 27 -2.8 24 -4.4 89 89 NNW 26 43 29.69 1005 1 1 0.03 0.76
6:49 pm 18:49 Mostly Cloudy with Light Snow 27 -3 25 -4 93 93 N 20 31 29.74 1007 2 3 0.04 1.02
6:52 pm 18:52 Mostly Cloudy with Light Snow 27 -2.8 24 -4.4 89 89 NNW 23 37 29.72 1007 2 3 0.04 1.02
7:12 pm 19:12 Windy with Snow Likely 27 -3 25 -4 93 93 NNW 22 35 29.74 1007 2 3 0.00 0.00
7:43 pm 19:43 Windy with Snow Likely 27 -2.8 24 -4.4 89 89 NNW 22 35 29.77 1008 2 2 0.00 0.03
7:52 pm 19:52 Windy with Snow Likely 27 -2.8 24 -4.4 89 89 NNW 26 43 29.76 1008 2 2 0.01 0.25
8:52 pm 20:52 Windy with Snow Likely 27 -2.8 24 -4.4 89 89 N 21 33 29.79 1009 2 3 0.00 0.03
8:59 pm 20:59 Cloudy with Light Snow 28 -2.2 24 -4.4 85 85 N 18 30 29.80 1009 3 4 0.00 0.03
9:08 pm 21:08 Windy with Snow Likely 28 -2 25 -4 86 86 N 22 35 29.80 1009 3 5 0.00 0.00
9:32 pm 21:32 Windy with Snow Likely 28 -2 23 -5 80 80 N 20 31 29.80 1009 3 4 0.00 0.00
9:52 pm 21:52 Windy with Snow Likely 28 -2.2 23 -5 81 81 NNW 20 31 29.81 1009 4 6 0.00 0.03
9:55 pm 21:55 Cloudy with Light Snow 28 -2.2 23 -5 81 81 N 17 28 29.80 1009 5 8 0.00 0.03
10:24 pm 22:24 Windy with Snow Likely 28 -2 25 -4 86 86 N 20 31 29.83 1010 3 4 0.00 0.00
10:32 pm 22:32 Cloudy with Light Snow 28 -2 23 -5 80 80 N 18 30 29.83 1010 3 5 0.00 0.00
10:45 pm 22:45 Windy with Snow Likely 28 -2.2 24 -4.4 85 85 NNW 21 33 29.83 1010 5 8 0.00 0.03
10:52 pm 22:52 Windy with Snow Likely 28 -2.2 23 -5 81 81 N 20 31 29.83 1010 6 10 0.00 0.03
11:52 pm 23:52 Cloudy with Light Snow 29 -1.7 21 -6.1 72 72 N 15 24 29.84 1011 9 14 0.00 0.03

Powered by AerisWeather